Gulf Shores, AL

11:56 PM CDT on September 27, 2016 (GMT -0500)
Edwards

Weather History for KJKA - December, 2012

Change the Weather History Date:

Tuesday, December 25, 2012

  Actual Average (KPNS) Record (KPNS)
Temperature  
Mean Temperature 62 °F 52 °F  
Max Temperature 71 °F 61 °F 78 °F (1955)
Min Temperature 53 °F 43 °F 11 °F (1983)
Degree Days  
Heating Degree Days 3 13  
Month to date heating degree days 286  
Since 1 July heating degree days 498  
Cooling Degree Days 0 0  
Month to date cooling degree days 7  
Year to date cooling degree days 2603  
Growing Degree Days 12 (Base 50)    
Moisture  
Dew Point 61 °F    
Average Humidity 84    
Maximum Humidity 94    
Minimum Humidity 73    
Precipitation  
Precipitation 0.15 in 0.15 in 3.26 in (1964)
Month to date precipitation 3.73  
Year to date precipitation 64.45  
Snow  
Snow 0.00 in 0.00 in 0.00 in (2001)
Month to date snowfall 0.0  
Since 1 July snowfall 0.0  
Snow Depth -    
Sea Level Pressure  
Sea Level Pressure 29.78 in    
Wind  
Wind Speed 6 mph (SSE)    
Max Wind Speed 24 mph    
Max Gust Speed 36 mph    
Visibility 7 miles    
Events Fog , Rain , Thunderstorm    
T = Trace of Precipitation, MM = Missing Value Source: NWS Daily Summary

Daily Weather History Graph

Daily Weather History Graph

Search for Another Location

Airport or City:

Trip Planner

Search our weather history database for the weather conditions in past years. The results will help you decide how hot, cold, wet, or windy it might be!

Date:

Astronomy

Dec. 25, 2012 Rise Set
Actual Time 6:45 AM CST 4:57 PM CST
Civil Twilight 6:18 AM CST 5:23 PM CST
Nautical Twilight 5:48 AM CST 5:53 PM CST
Astronomical Twilight 5:19 AM CST 6:22 PM CST
Moon 3:02 PM CST (12/25) 4:20 AM CST (12/25)
Length of Visible Light 11h 04m
Length of Day
10h 11m
Waxing Gibbous, 94% of the Moon is Illuminated
Dec 25
Waxing Gibbous
Dec 28
Full
Jan 4
Last Quarter
Jan 11
New
Jan 18
First Quarter

Hourly Weather History & Observations

Time (CST) Temp. Dew Point Humidity Pressure Visibility Wind Dir Wind Speed Gust Speed Precip Events Conditions
12:15 AM 59.0 °F 57.2 °F 94% 29.91 in 0.2 mi Calm Calm - N/A Fog Fog
12:35 AM 59.0 °F 55.4 °F 88% 29.90 in 0.2 mi Calm Calm - N/A Fog Fog
12:55 AM 59.0 °F 55.4 °F 88% 29.90 in 0.2 mi Calm Calm - N/A Fog Fog
1:15 AM 59.0 °F 57.2 °F 94% 29.91 in 0.2 mi Calm Calm - N/A Fog Fog
1:35 AM 60.8 °F 59.0 °F 94% 29.90 in 0.2 mi Calm Calm - N/A Fog Fog
1:55 AM 60.8 °F 59.0 °F 94% 29.90 in 0.2 mi Calm Calm - N/A Fog Fog
2:15 AM 59.0 °F 57.2 °F 94% 29.89 in 0.2 mi Calm Calm - N/A Fog Fog
2:35 AM 60.8 °F 59.0 °F 94% 29.89 in 0.2 mi Calm Calm - N/A Fog Fog
2:55 AM 59.0 °F 57.2 °F 94% 29.89 in 0.2 mi Calm Calm - N/A Fog Fog
3:15 AM 59.0 °F 57.2 °F 94% 29.88 in 0.2 mi Calm Calm - N/A Fog Fog
3:35 AM 60.8 °F 59.0 °F 94% 29.88 in 0.2 mi East 3.5 mph - N/A Fog Fog
3:55 AM 60.8 °F 59.0 °F 94% 29.87 in 0.2 mi Calm Calm - N/A Fog Fog
4:15 AM 60.8 °F 57.2 °F 88% 29.87 in 0.5 mi Calm Calm - N/A Fog Fog
4:35 AM 60.8 °F 59.0 °F 94% 29.86 in 0.5 mi East 4.6 mph - N/A Fog Fog
4:55 AM 60.8 °F 59.0 °F 94% 29.86 in 0.5 mi East 4.6 mph - N/A Fog Fog
5:15 AM 62.6 °F 59.0 °F 88% 29.86 in 0.5 mi East 4.6 mph - N/A Fog Fog
5:35 AM 62.6 °F 60.8 °F 94% 29.86 in 0.5 mi East 4.6 mph - N/A Fog Fog
5:55 AM 62.6 °F 60.8 °F 94% 29.85 in 0.8 mi East 5.8 mph - N/A   Overcast
6:15 AM 64.4 °F 62.6 °F 94% 29.84 in 3.0 mi ESE 6.9 mph - N/A   Overcast
6:35 AM 64.4 °F 62.6 °F 94% 29.84 in 10.0 mi SE 10.4 mph - N/A   Overcast
6:55 AM 66.2 °F 64.4 °F 94% 29.84 in 10.0 mi SE 10.4 mph - N/A   Overcast
7:15 AM 66.2 °F 64.4 °F 94% 29.84 in 10.0 mi SSE 10.4 mph 17.3 mph N/A   Overcast
7:35 AM 66.2 °F 62.6 °F 88% 29.86 in 10.0 mi South 9.2 mph - N/A Thunderstorm Overcast
7:55 AM 66.2 °F 62.6 °F 88% 29.84 in 10.0 mi SSE 6.9 mph - N/A   Mostly Cloudy
8:15 AM 66.2 °F 62.6 °F 88% 29.85 in 10.0 mi SSE 9.2 mph - N/A   Scattered Clouds
8:35 AM 66.2 °F 62.6 °F 88% 29.85 in 10.0 mi SSE 6.9 mph - N/A   Clear
8:55 AM 66.2 °F 64.4 °F 94% 29.86 in 10.0 mi SSE 8.1 mph - N/A   Clear
9:15 AM 68.0 °F 64.4 °F 88% 29.84 in 10.0 mi SSE 10.4 mph - N/A   Clear
9:35 AM 68.0 °F 62.6 °F 83% 29.85 in 10.0 mi SSE 10.4 mph - N/A   Clear
9:55 AM 68.0 °F 62.6 °F 83% 29.86 in 10.0 mi South 8.1 mph - N/A   Scattered Clouds
10:15 AM 69.8 °F 62.6 °F 78% 29.86 in 10.0 mi South 8.1 mph - N/A   Clear
10:35 AM 69.8 °F 62.6 °F 78% 29.86 in 10.0 mi SSE 9.2 mph 16.1 mph N/A   Scattered Clouds
10:55 AM 69.8 °F 62.6 °F 78% 29.84 in 10.0 mi SSE 11.5 mph - N/A   Scattered Clouds
11:15 AM 71.6 °F 62.6 °F 73% 29.82 in 10.0 mi SSE 13.8 mph 20.7 mph N/A   Clear
11:35 AM 71.6 °F 62.6 °F 73% 29.82 in 10.0 mi SSE 11.5 mph - N/A   Scattered Clouds
11:55 AM 71.6 °F 62.6 °F 73% 29.80 in 10.0 mi SE 10.4 mph 18.4 mph N/A   Scattered Clouds
12:15 PM 69.8 °F 62.6 °F 78% 29.78 in 10.0 mi SE 13.8 mph 19.6 mph N/A   Scattered Clouds
12:35 PM 71.6 °F 62.6 °F 73% 29.76 in 10.0 mi SE 16.1 mph 20.7 mph N/A   Scattered Clouds
12:55 PM 71.6 °F 62.6 °F 73% 29.74 in 10.0 mi SE 13.8 mph 23.0 mph N/A   Clear
1:15 PM 71.6 °F 62.6 °F 73% 29.74 in 10.0 mi SE 11.5 mph 19.6 mph N/A   Scattered Clouds
1:35 PM 71.6 °F 62.6 °F 73% 29.74 in 10.0 mi SE 9.2 mph 18.4 mph N/A   Mostly Cloudy
1:55 PM 71.6 °F 62.6 °F 73% 29.74 in 10.0 mi SE 10.4 mph - N/A   Scattered Clouds
2:15 PM 71.6 °F 62.6 °F 73% 29.75 in 10.0 mi SE 8.1 mph - N/A   Scattered Clouds
2:35 PM 69.8 °F 62.6 °F 78% 29.74 in 10.0 mi SE 10.4 mph - N/A   Scattered Clouds
2:55 PM 69.8 °F 62.6 °F 78% 29.74 in 10.0 mi SSE 9.2 mph - N/A   Mostly Cloudy
3:15 PM 71.6 °F 64.4 °F 78% 29.74 in 10.0 mi SE 10.4 mph - N/A   Scattered Clouds
3:35 PM 71.6 °F 64.4 °F 78% 29.72 in 10.0 mi SE 12.7 mph - N/A   Scattered Clouds
3:55 PM 69.8 °F 64.4 °F 83% 29.72 in 10.0 mi SSE 12.7 mph 17.3 mph N/A   Scattered Clouds
4:15 PM 69.8 °F 64.4 °F 83% 29.70 in 10.0 mi SSE 13.8 mph 23.0 mph N/A   Scattered Clouds
4:35 PM 69.8 °F 64.4 °F 83% 29.68 in 7.0 mi SE 13.8 mph 19.6 mph N/A   Scattered Clouds
4:55 PM 69.8 °F 62.6 °F 78% 29.67 in 10.0 mi SSE 16.1 mph 23.0 mph N/A   Mostly Cloudy
5:15 PM 69.8 °F 62.6 °F 78% 29.69 in 10.0 mi SSE 12.7 mph 20.7 mph N/A   Overcast
5:35 PM 69.8 °F 62.6 °F 78% 29.68 in 10.0 mi SSE 15.0 mph 21.9 mph N/A   Mostly Cloudy
5:55 PM 69.8 °F 62.6 °F 78% 29.67 in 10.0 mi SSE 19.6 mph 27.6 mph N/A   Mostly Cloudy
6:15 PM 69.8 °F 62.6 °F 78% 29.66 in 10.0 mi SSE 15.0 mph 26.5 mph N/A   Scattered Clouds
6:35 PM 69.8 °F 62.6 °F 78% 29.63 in 10.0 mi SSE 17.3 mph 25.3 mph N/A   Scattered Clouds
6:55 PM 69.8 °F 62.6 °F 78% 29.63 in 10.0 mi SSE 16.1 mph 25.3 mph N/A   Mostly Cloudy
7:15 PM 69.8 °F 62.6 °F 78% 29.63 in 10.0 mi South 17.3 mph 26.5 mph N/A Thunderstorm Thunderstorm
7:35 PM 69.8 °F 62.6 °F 78% 29.63 in 7.0 mi South 16.1 mph 24.2 mph N/A   Overcast
7:55 PM 69.8 °F 62.6 °F 78% 29.62 in 10.0 mi South 17.3 mph 26.5 mph N/A Thunderstorm Overcast
8:15 PM 69.8 °F 60.8 °F 73% 29.62 in 7.0 mi South 19.6 mph 29.9 mph N/A Thunderstorm Overcast
8:35 PM 69.8 °F 62.6 °F 78% 29.63 in 7.0 mi South 24.2 mph 35.7 mph N/A Rain , Thunderstorm Light Thunderstorms and Rain
8:55 PM 66.2 °F 62.6 °F 88% 29.63 in 7.0 mi South 20.7 mph 31.1 mph 0.01 in Rain , Thunderstorm Light Thunderstorms and Rain
9:15 PM 66.2 °F 62.6 °F 88% 29.62 in 5.0 mi South 20.7 mph 28.8 mph N/A Rain , Thunderstorm Light Thunderstorms and Rain
10:15 PM 53.6 °F 51.8 °F 94% 29.70 in 10.0 mi SW 6.9 mph - N/A   Overcast
10:35 PM 55.4 °F 51.8 °F 88% 29.69 in 7.0 mi WSW 6.9 mph - 0.02 in   Overcast
10:55 PM 53.6 °F 51.8 °F 94% 29.69 in 7.0 mi West 10.4 mph - 0.05 in   Mostly Cloudy
11:15 PM 55.4 °F 53.6 °F 94% 29.69 in 10.0 mi West 15.0 mph - 0.04 in   Mostly Cloudy
11:35 PM 59.0 °F 51.8 °F 77% 29.69 in 10.0 mi WSW 15.0 mph 18.4 mph 0.07 in   Scattered Clouds
11:55 PM 59.0 °F 51.8 °F 77% 29.71 in 10.0 mi WSW 15.0 mph 21.9 mph 0.09 in   Mostly Cloudy